User: anonymous   Login
Location: Vancouver
(49.2500°N, 123.1330°W)
Time: 12:52:04
(UTC-07:00)
Language:

ISS - Orbit

View from above orbital plane
View from above orbital plane
View from above satellite
View from above satellite

Ground track
Ground track

The orbit data is extracted from the following two-line orbital elements,

1 25544U 98067A   16208.54154936  .00016717  00000-0  10270-3 0  9012
2 25544  51.6406 221.6810 0002072  73.9819 286.1562 15.54909039 11100
Epoch (UTC): 26 July 2016 12:59:49
Eccentricity: 0.0002072
inclination: 51.6406°
perigee height: 401 km
apogee height: 404 km
right ascension of ascending node: 221.6810°
argument of perigee: 73.9819°
revolutions per day: 15.54909039
mean anomaly at epoch: 286.1562°
orbit number at epoch: 1110

The dashed part of the orbit path shows where the satellite is in the earth's shadow,  

DLR